[[{"header":{"parameterUnit":"m.s-1","parameterCategory":2,"la1":30.2991,"la2":30.254,"lo1":-89.0895,"lo2":-89.0444,"dy":0.0017,"dx":0.0017,"nx":28,"ny":28,"refTime":"2025-07-09T21:00:00:Z","depth":"0","parameterNumber":2,"parameterNumberName":"U-component_of_CURRENTS"},"data":[0,0,0,0,0,0,0,0,0,0,0,0,0,0,0,0,0,0,0,0,0,0,0,0,0,0,0,0,0,0,0,0,0,0,0,0,0,0,0,0,0,0,0,0,0,0,0,0,0,0,0,0,0,0,0,0,0,0,-0.2248,-0.2249,0,-0.2245,-0.2244,-0.2244,-0.2206,-0.2206,-0.2205,-0.2204,-0.2154,-0.2153,-0.2152,0,0,0,0,0,0,0,0,0,0,0,0,0,-0.2201,-0.2202,-0.2248,-0.2249,-0.2249,-0.2245,-0.2244,-0.2244,-0.2207,-0.2206,-0.2205,-0.2204,-0.2154,-0.2153,-0.2152,0,0,0,0,0,0,0,0,0,0,0,0,0,-0.221,-0.2202,-0.2248,-0.223,-0.2229,-0.2245,-0.2244,-0.2244,-0.2207,-0.2206,-0.2204,-0.2203,-0.2154,-0.2153,-0.2152,-0.2171,0,0,-0.215,-0.2149,0,0,0,0,0,0,0,0,-0.221,-0.2212,-0.2233,-0.2232,-0.223,-0.2226,-0.2209,-0.2218,-0.2207,-0.2214,-0.2204,-0.2203,-0.2175,-0.2173,-0.2173,-0.2169,-0.2167,-0.215,-0.2149,-0.2149,-0.2148,0,0,0,0,0,0,0,-0.2209,-0.2212,-0.2245,-0.2233,-0.2231,-0.2215,-0.2215,-0.2211,-0.2199,-0.2213,-0.2211,-0.2213,-0.2174,-0.2174,-0.2172,-0.2166,-0.215,-0.2149,-0.2148,-0.2148,-0.2167,-0.2168,0,0,0,0,0,0,-0.2216,-0.2212,-0.2246,-0.2245,-0.2218,-0.2217,-0.2217,-0.2227,-0.22,-0.2196,-0.2214,-0.2211,-0.2176,-0.2173,-0.217,-0.2171,-0.2149,-0.2148,-0.2147,-0.2166,-0.2167,-0.2168,0,0,0,0,0,0,-0.2215,-0.2219,-0.2246,-0.2229,-0.2231,-0.2219,-0.2231,-0.2228,-0.2219,-0.2202,-0.2196,-0.2207,-0.2175,-0.2171,-0.2163,-0.2169,-0.2147,-0.2147,-0.2164,-0.2166,-0.2167,-0.2186,0,0,0,0,0,0,-0.2214,-0.2219,-0.222,-0.223,-0.2232,-0.2239,-0.2232,-0.2229,-0.2223,-0.2219,-0.2194,-0.2189,-0.2174,-0.2164,-0.2162,-0.2168,-0.2146,-0.2163,-0.2165,-0.2167,-0.2184,-0.2188,-0.2191,0,0,0,0,0,-0.2212,-0.2197,-0.222,-0.2224,-0.2238,-0.2239,-0.2238,-0.2225,-0.2224,-0.2214,-0.2208,-0.2189,-0.2175,-0.2164,-0.2161,-0.2167,-0.2162,-0.2165,-0.2167,-0.2182,-0.2187,-0.2191,0,0,0,0,0,0,-0.2163,-0.2194,-0.2218,-0.2212,-0.2228,-0.2233,-0.2207,-0.2226,-0.2216,-0.2203,-0.2198,-0.2193,-0.2194,-0.2182,-0.2171,-0.2181,-0.2168,-0.2169,-0.218,-0.2185,-0.2188,-0.2202,-0.2145,0,0,0,0,0,-0.2163,-0.2159,-0.2199,-0.2189,-0.2193,-0.2211,-0.2208,-0.2212,-0.2211,-0.2204,-0.2199,-0.2195,-0.2206,-0.2194,-0.2195,-0.2193,-0.2197,-0.2198,-0.2201,-0.2204,-0.2216,-0.2249,-0.2256,-0.2176,-0.2176,-0.2176,0,0,-0.2131,-0.2154,-0.2146,-0.2178,-0.2179,-0.2192,-0.2202,-0.219,-0.2213,-0.2201,-0.2203,-0.2207,-0.2212,-0.2215,-0.2214,-0.2199,-0.2224,-0.2207,-0.221,-0.222,-0.2252,-0.226,-0.2267,-0.2177,-0.2177,-0.2177,0,0,-0.2055,-0.2096,-0.2063,-0.2096,-0.2116,-0.215,-0.2154,-0.2173,-0.2186,-0.2199,-0.2212,-0.2219,-0.2214,-0.2229,-0.2236,-0.2261,-0.2252,-0.2262,-0.2278,-0.2309,-0.2316,-0.2322,-0.2312,-0.2317,-0.2253,-0.2253,-0.2253,0,-0.2005,-0.202,-0.2051,-0.205,-0.2091,-0.2137,-0.215,-0.2171,-0.2192,-0.222,-0.2191,-0.2239,-0.2223,-0.2273,-0.2275,-0.2268,-0.2277,-0.2257,-0.2313,-0.232,-0.2326,-0.2314,-0.232,-0.2254,-0.2254,-0.2254,-0.2253,0,-0.1916,-0.1958,-0.194,-0.1985,-0.2026,-0.2041,-0.2113,-0.2147,-0.2178,-0.2209,-0.2255,-0.2251,-0.2284,-0.2279,-0.2276,-0.2329,-0.2317,-0.2322,-0.23,-0.2335,-0.232,-0.2326,-0.2255,-0.2255,-0.2255,-0.2254,0,0,-0.1736,-0.1856,-0.1856,-0.1924,-0.2018,-0.2049,-0.2109,-0.2193,-0.2244,-0.2252,-0.2318,-0.2322,-0.2335,-0.2347,-0.2358,-0.2369,-0.2394,-0.2361,-0.2362,-0.2346,-0.2444,-0.2188,-0.2169,-0.2417,-0.2419,-0.242,-0.2407,0,-0.1664,-0.1701,-0.1786,-0.1863,-0.1915,-0.2039,-0.2104,-0.2188,-0.2252,-0.2318,-0.2346,-0.2387,-0.2361,-0.238,-0.2396,-0.2424,-0.2415,-0.2396,-0.2418,-0.2417,-0.2182,-0.2169,-0.1881,-0.1824,-0.2412,-0.2413,-0.2414,0,-0.1547,-0.1627,-0.1695,-0.1892,-0.1918,-0.1976,-0.2149,-0.2209,-0.2324,-0.2365,-0.2425,-0.2457,-0.2508,-0.2465,-0.2507,-0.2503,-0.247,-0.246,-0.246,-0.2222,-0.2171,-0.189,-0.1811,-0.1773,-0.2422,-0.2421,-0.2421,0,-0.1442,-0.1569,-0.1654,-0.1713,-0.191,-0.1982,-0.2077,-0.2211,-0.2291,-0.2403,-0.2457,-0.2527,-0.2557,-0.2569,-0.2525,-0.2541,-0.2536,-0.2558,-0.2289,-0.227,-0.2026,-0.198,-0.1903,-0.2557,-0.2557,-0.2557,-0.2557,0,-0.1368,-0.1441,-0.1618,-0.168,-0.1805,-0.1934,-0.2057,-0.2161,-0.2297,-0.2379,-0.247,-0.2528,-0.2585,-0.2589,-0.2557,-0.2408,-0.2556,-0.2278,-0.2246,-0.2016,-0.1972,-0.1927,-0.2059,-0.2556,-0.2556,-0.2556,-0.2556,0,-0.1279,-0.137,-0.1505,-0.171,-0.177,-0.1861,-0.2064,-0.2143,-0.2264,-0.2384,-0.2422,-0.2544,-0.2505,-0.2497,-0.2487,-0.2399,-0.2242,-0.2215,-0.1905,-0.1833,-0.1512,-0.1658,-0.1665,-0.1626,-0.1938,-0.1932,-0.1926,0,-0.1252,-0.1312,-0.1524,-0.1598,-0.1706,-0.1849,-0.1943,-0.2108,-0.2203,-0.2371,-0.2422,-0.2428,-0.2373,-0.2236,-0.2036,-0.1865,-0.198,-0.1553,-0.1506,-0.1424,-0.157,-0.1718,-0.17,-0.1205,-0.1194,-0.1185,-0.1178,0,-0.1266,-0.1332,-0.1446,-0.1587,-0.1699,-0.1832,-0.1977,-0.2047,-0.2217,-0.2281,-0.2329,-0.2283,-0.2054,-0.1673,-0.1407,-0.1337,-0.1483,-0.1357,-0.1382,-0.1059,-0.1118,-0.1083,-0.1291,-0.1098,-0.1106,-0.1112,-0.1116,-0.112,-0.1283,-0.1349,-0.147,-0.16,-0.1701,-0.1798,-0.1831,-0.1948,-0.2026,-0.2017,-0.2092,-0.1819,-0.1348,-0.0873,-0.0855,-0.0544,-0.0865,-0.0472,-0.068,-0.0853,-0.0734,-0.0716,-0.0413,-0.0417,-0.0421,-0.0424,-0.0426,0,-0.1325,-0.1378,-0.1484,-0.1605,-0.1654,-0.173,-0.1834,-0.1791,-0.1775,-0.1645,-0.1544,-0.0888,-0.0409,-0.0134,0.0303,0.0226,0.0023,0.0051,-0.0132,-0.0166,-0.0179,-0.0051,0.0481,0.0481,0.0481,0.0481,0.0481,0.0481,-0.1347,-0.1422,-0.1464,-0.1531,-0.1578,-0.1553,-0.1556,-0.1457,-0.1304,-0.0884,-0.0448,-0.0192,0.0221,0.0558,0.0692,0.0565,0.0275,0.021,-0.0047,-0.0066,-0.0132,-0.0196,-0.0095,0.0418,0.0418,0.0162,0.0159,0.0157]},{"header":{"parameterUnit":"m.s-1","parameterCategory":2,"la1":30.2991,"la2":30.254,"lo1":-89.0895,"lo2":-89.0444,"dy":0.0017,"dx":0.0017,"nx":28,"ny":28,"refTime":"2025-07-09T21:00:00:Z","depth":"0","parameterNumber":3,"parameterNumberName":"V-component_of_CURRENTS"},"data":[0,0,0,0,0,0,0,0,0,0,0,0,0,0,0,0,0,0,0,0,0,0,0,0,0,0,0,0,0,0,0,0,0,0,0,0,0,0,0,0,0,0,0,0,0,0,0,0,0,0,0,0,0,0,0,0,0,0,-0.1162,-0.1161,0,-0.108,-0.1079,-0.1078,-0.0927,-0.0924,-0.0922,-0.0919,-0.0753,-0.0751,-0.0749,0,0,0,0,0,0,0,0,0,0,0,0,0,-0.106,-0.1063,-0.1162,-0.1161,-0.1161,-0.1081,-0.1079,-0.1077,-0.0927,-0.0924,-0.0921,-0.0918,-0.0753,-0.0751,-0.0748,0,0,0,0,0,0,0,0,0,0,0,0,0,-0.105,-0.1064,-0.1162,-0.1079,-0.1072,-0.1081,-0.1079,-0.1077,-0.0928,-0.0924,-0.092,-0.0917,-0.0754,-0.0751,-0.0748,-0.0803,0,0,-0.0738,-0.0737,0,0,0,0,0,0,0,0,-0.1051,-0.1054,-0.1092,-0.1085,-0.1076,-0.1014,-0.0982,-0.0983,-0.0929,-0.0977,-0.0919,-0.0915,-0.0838,-0.0828,-0.0815,-0.0795,-0.0788,-0.0738,-0.0736,-0.0735,-0.0734,0,0,0,0,0,0,0,-0.1052,-0.1056,-0.1125,-0.1092,-0.1082,-0.1003,-0.0998,-0.0981,-0.0924,-0.0973,-0.0963,-0.0963,-0.0832,-0.0819,-0.081,-0.0786,-0.0738,-0.0735,-0.0733,-0.0732,-0.0785,-0.0788,0,0,0,0,0,0,-0.1084,-0.1058,-0.1127,-0.1123,-0.106,-0.1009,-0.1003,-0.1034,-0.0926,-0.0908,-0.0966,-0.0956,-0.0826,-0.0814,-0.0804,-0.0883,-0.0735,-0.0732,-0.073,-0.0782,-0.0786,-0.0789,0,0,0,0,0,0,-0.1082,-0.1092,-0.1131,-0.1089,-0.1089,-0.1016,-0.1051,-0.1034,-0.101,-0.0923,-0.0901,-0.0957,-0.0823,-0.0808,-0.0797,-0.0874,-0.073,-0.0728,-0.0778,-0.0783,-0.0788,-0.1028,0,0,0,0,0,0,-0.108,-0.1093,-0.1122,-0.1093,-0.1093,-0.117,-0.1054,-0.1036,-0.1019,-0.1004,-0.091,-0.089,-0.0819,-0.0803,-0.0794,-0.0867,-0.0725,-0.0774,-0.078,-0.0786,-0.1016,-0.1041,-0.1062,0,0,0,0,0,-0.1078,-0.1152,-0.1125,-0.1133,-0.1139,-0.1174,-0.1168,-0.1096,-0.1022,-0.1051,-0.097,-0.0892,-0.0835,-0.0804,-0.0792,-0.0866,-0.0771,-0.0778,-0.0785,-0.1006,-0.1036,-0.1062,0,0,0,0,0,0,-0.1094,-0.1144,-0.1113,-0.1188,-0.1192,-0.1151,-0.1172,-0.1115,-0.1074,-0.1048,-0.0935,-0.0915,-0.0936,-0.0871,-0.0838,-0.0899,-0.0792,-0.0797,-0.0963,-0.0991,-0.1013,-0.1035,-0.0722,0,0,0,0,0,-0.1125,-0.1212,-0.1208,-0.1267,-0.1279,-0.1223,-0.1222,-0.1183,-0.1144,-0.1119,-0.1056,-0.0992,-0.0966,-0.095,-0.0919,-0.0958,-0.086,-0.0997,-0.102,-0.104,-0.105,-0.0981,-0.0998,-0.0814,-0.0814,-0.0814,0,0,-0.1146,-0.1184,-0.1227,-0.128,-0.127,-0.134,-0.1213,-0.1243,-0.1285,-0.1114,-0.1149,-0.1074,-0.0993,-0.1032,-0.1037,-0.0983,-0.1041,-0.1049,-0.1067,-0.1066,-0.099,-0.1008,-0.1024,-0.0819,-0.0818,-0.0817,0,0,-0.1266,-0.1271,-0.1391,-0.1421,-0.1447,-0.1425,-0.1442,-0.1423,-0.1395,-0.1427,-0.131,-0.1283,-0.125,-0.121,-0.1182,-0.1317,-0.1165,-0.1303,-0.1439,-0.1374,-0.1388,-0.1399,-0.1295,-0.1294,-0.1315,-0.1316,-0.1316,0,-0.1255,-0.1425,-0.1422,-0.1537,-0.156,-0.1479,-0.1575,-0.1572,-0.1546,-0.1516,-0.1473,-0.1392,-0.1345,-0.1351,-0.1408,-0.1373,-0.128,-0.1344,-0.1404,-0.1413,-0.142,-0.1309,-0.1306,-0.1328,-0.1327,-0.1326,-0.1324,0,-0.1498,-0.1593,-0.1662,-0.1787,-0.1816,-0.1886,-0.1877,-0.1881,-0.1824,-0.1784,-0.1765,-0.1692,-0.162,-0.163,-0.157,-0.1602,-0.15,-0.144,-0.1334,-0.1453,-0.1328,-0.1321,-0.1346,-0.1342,-0.1338,-0.1335,0,0,-0.1534,-0.1776,-0.1801,-0.1853,-0.194,-0.1966,-0.2053,-0.2063,-0.2045,-0.2038,-0.2012,-0.2016,-0.1908,-0.1871,-0.1781,-0.1755,-0.1753,-0.164,-0.1631,-0.1537,-0.1564,-0.1369,-0.134,-0.1689,-0.169,-0.169,-0.1454,0,-0.1686,-0.1945,-0.2031,-0.219,-0.2273,-0.2232,-0.2294,-0.2282,-0.2231,-0.2195,-0.2111,-0.2063,-0.202,-0.1959,-0.1946,-0.1779,-0.1743,-0.1819,-0.1461,-0.1451,-0.1264,-0.1329,-0.1166,-0.0931,-0.1446,-0.1444,-0.1443,0,-0.1895,-0.202,-0.224,-0.232,-0.2347,-0.2426,-0.2405,-0.2451,-0.2392,-0.2341,-0.2286,-0.2176,-0.2137,-0.2073,-0.1898,-0.1935,-0.179,-0.1673,-0.1659,-0.1386,-0.1242,-0.0895,-0.0896,-0.0777,-0.1429,-0.143,-0.1431,0,-0.1915,-0.2136,-0.2298,-0.2348,-0.2459,-0.2489,-0.2509,-0.2479,-0.2459,-0.2406,-0.2342,-0.2273,-0.2175,-0.2051,-0.1821,-0.1849,-0.158,-0.1571,-0.1259,-0.124,-0.0984,-0.0943,-0.0825,-0.1458,-0.1458,-0.1459,-0.146,0,-0.2031,-0.2136,-0.2313,-0.239,-0.2473,-0.2519,-0.2549,-0.2546,-0.2508,-0.2446,-0.2399,-0.23,-0.2162,-0.1973,-0.1821,-0.1486,-0.1566,-0.128,-0.1175,-0.1062,-0.1032,-0.0818,-0.0838,-0.145,-0.1452,-0.1454,-0.1455,0,-0.2035,-0.2189,-0.2327,-0.2466,-0.2502,-0.254,-0.2579,-0.2566,-0.2537,-0.2452,-0.2425,-0.2291,-0.2029,-0.1834,-0.1564,-0.1414,-0.103,-0.1017,-0.0872,-0.0755,-0.0382,-0.0422,-0.0193,-0.0078,-0.066,-0.0653,-0.0648,0,-0.207,-0.2172,-0.2358,-0.242,-0.2491,-0.2552,-0.2575,-0.2584,-0.2548,-0.2404,-0.2342,-0.2094,-0.1853,-0.1397,-0.1093,-0.0744,-0.0725,-0.0401,-0.0459,-0.0334,-0.0302,-0.0364,-0.0292,-0.0209,-0.0201,-0.0194,-0.0189,0,-0.2068,-0.2156,-0.226,-0.2417,-0.2485,-0.253,-0.2556,-0.2527,-0.2467,-0.2324,-0.2093,-0.1891,-0.1447,-0.0975,-0.0538,-0.0341,-0.0289,-0.0247,-0.0163,0.0017,0.0004,0.016,-0.0382,-0.0128,-0.0134,-0.0138,-0.0142,-0.0144,-0.2015,-0.2085,-0.2252,-0.2377,-0.2453,-0.2472,-0.2414,-0.2363,-0.2218,-0.1872,-0.1812,-0.1307,-0.0866,-0.0217,-0.0036,0.0409,0.022,0.0528,0.0462,0.0385,0.05,0.0109,0.0504,0.0502,0.05,0.0498,0.0496,0,-0.1928,-0.2059,-0.2194,-0.2324,-0.2366,-0.243,-0.2358,-0.2192,-0.1911,-0.1514,-0.1174,-0.0413,0.0067,0.0426,0.0909,0.1086,0.1053,0.1142,0.1052,0.1087,0.0748,0.0773,0.13,0.13,0.13,0.1299,0.1299,0.1299,-0.188,-0.2008,-0.212,-0.2211,-0.2274,-0.2177,-0.2077,-0.1781,-0.1435,-0.0668,-0.0044,0.0345,0.0755,0.1067,0.1444,0.1504,0.154,0.1566,0.1533,0.1246,0.1181,0.1118,0.114,0.1734,0.1734,0.1943,0.1945,0.1946]}],[{"header":{"parameterUnit":"m.s-1","parameterCategory":2,"la1":30.2991,"la2":30.254,"lo1":-89.0895,"lo2":-89.0444,"dy":0.0017,"dx":0.0017,"nx":28,"ny":28,"refTime":"2025-07-09T21:00:00:Z","depth":"2","parameterNumber":2,"parameterNumberName":"U-component_of_CURRENTS"},"data":[0,0,0,0,0,0,0,0,0,0,0,0,0,0,0,0,0,0,0,0,0,0,0,0,0,0,0,0,0,0,0,0,0,0,0,0,0,0,0,0,0,0,0,0,0,0,0,0,0,0,0,0,0,0,0,0,0,0,-0.1833,-0.1833,0,-0.1849,-0.1849,-0.1849,-0.1854,-0.1854,-0.1854,-0.1854,-0.1879,-0.1879,-0.188,0,0,0,0,0,0,0,0,0,0,0,0,0,-0.1823,-0.1823,-0.1833,-0.1833,-0.1834,-0.1848,-0.1849,-0.1849,-0.1854,-0.1854,-0.1854,-0.1854,-0.1878,-0.1879,-0.188,0,0,0,0,0,0,0,0,0,0,0,0,0,-0.1831,-0.1823,-0.1833,-0.1839,-0.184,-0.1848,-0.1849,-0.1849,-0.1854,-0.1854,-0.1854,-0.1854,-0.1878,-0.1879,-0.188,-0.1885,0,0,-0.1883,-0.1883,0,0,0,0,0,0,0,0,-0.183,-0.1831,-0.1838,-0.1838,-0.1839,-0.185,-0.1854,-0.1862,-0.1854,-0.1848,-0.1854,-0.1854,-0.1871,-0.1872,-0.1873,-0.1886,-0.1887,-0.1883,-0.1883,-0.1884,-0.1884,0,0,0,0,0,0,0,-0.183,-0.1831,-0.1838,-0.1838,-0.1839,-0.1846,-0.1847,-0.1856,-0.1858,-0.1848,-0.1849,-0.1852,-0.1871,-0.1872,-0.1874,-0.1887,-0.1883,-0.1884,-0.1884,-0.1885,-0.1913,-0.1913,0,0,0,0,0,0,-0.1829,-0.183,-0.1838,-0.1839,-0.1836,-0.1846,-0.1847,-0.1846,-0.1858,-0.186,-0.1852,-0.1852,-0.1871,-0.1873,-0.1875,-0.1908,-0.1884,-0.1885,-0.1885,-0.1913,-0.1913,-0.1913,0,0,0,0,0,0,-0.1829,-0.1829,-0.1837,-0.1836,-0.1837,-0.1846,-0.1845,-0.1846,-0.1853,-0.1861,-0.1863,-0.1858,-0.1871,-0.1874,-0.1887,-0.1908,-0.1885,-0.1886,-0.1913,-0.1913,-0.1913,-0.1958,0,0,0,0,0,0,-0.1828,-0.1829,-0.1829,-0.1836,-0.1837,-0.185,-0.1845,-0.1847,-0.1855,-0.1855,-0.1866,-0.1868,-0.1871,-0.1885,-0.1888,-0.1909,-0.1887,-0.1912,-0.1913,-0.1913,-0.1956,-0.196,-0.1963,0,0,0,0,0,-0.1828,-0.1827,-0.1829,-0.183,-0.1837,-0.185,-0.1852,-0.1858,-0.1855,-0.1863,-0.1866,-0.1868,-0.1889,-0.1886,-0.1889,-0.1911,-0.1912,-0.1913,-0.1913,-0.1955,-0.1959,-0.1963,0,0,0,0,0,0,-0.1827,-0.1828,-0.183,-0.1831,-0.1844,-0.1852,-0.1855,-0.1861,-0.1869,-0.1866,-0.1873,-0.1875,-0.1889,-0.1891,-0.1888,-0.1918,-0.1901,-0.1902,-0.1931,-0.1935,-0.1938,-0.2003,-0.1887,0,0,0,0,0,-0.1826,-0.1819,-0.1833,-0.1833,-0.1839,-0.1848,-0.1853,-0.1859,-0.1867,-0.1871,-0.1879,-0.1885,-0.1892,-0.1907,-0.1905,-0.1931,-0.1943,-0.1944,-0.1948,-0.1951,-0.2003,-0.2089,-0.2107,-0.1915,-0.1915,-0.1915,0,0,-0.1824,-0.1824,-0.182,-0.1831,-0.1837,-0.1853,-0.1851,-0.186,-0.1883,-0.1872,-0.1898,-0.189,-0.1895,-0.1917,-0.1925,-0.1927,-0.1982,-0.1951,-0.1954,-0.2006,-0.2092,-0.2111,-0.2128,-0.1915,-0.1915,-0.1915,0,0,-0.1814,-0.1818,-0.1811,-0.1826,-0.1839,-0.1853,-0.1858,-0.1873,-0.1891,-0.1912,-0.1905,-0.1915,-0.1931,-0.1945,-0.1953,-0.1975,-0.1986,-0.197,-0.206,-0.2141,-0.2159,-0.2176,-0.2096,-0.2106,-0.1987,-0.1987,-0.1987,0,-0.1815,-0.1816,-0.1815,-0.1821,-0.1864,-0.1855,-0.1896,-0.1894,-0.1914,-0.196,-0.1925,-0.2004,-0.1948,-0.2043,-0.2017,-0.1986,-0.2003,-0.2044,-0.2151,-0.2168,-0.2185,-0.2101,-0.2111,-0.199,-0.1989,-0.1989,-0.1989,0,-0.1802,-0.1817,-0.1818,-0.1834,-0.1879,-0.1903,-0.1933,-0.1969,-0.1988,-0.2,-0.2095,-0.2072,-0.2139,-0.2098,-0.2048,-0.2152,-0.2106,-0.2134,-0.2151,-0.2208,-0.2112,-0.2121,-0.1993,-0.1992,-0.1991,-0.1991,0,0,-0.1778,-0.1807,-0.1809,-0.1858,-0.1906,-0.1949,-0.2012,-0.2094,-0.2146,-0.2178,-0.2289,-0.227,-0.229,-0.2302,-0.228,-0.2324,-0.2329,-0.2282,-0.2285,-0.2217,-0.2428,-0.2183,-0.2168,-0.242,-0.2425,-0.2428,-0.2271,0,-0.1782,-0.1817,-0.185,-0.1929,-0.1976,-0.2052,-0.2122,-0.2195,-0.2231,-0.2301,-0.2357,-0.2392,-0.2362,-0.2382,-0.2446,-0.2353,-0.2381,-0.2363,-0.2373,-0.237,-0.2164,-0.2184,-0.2049,-0.1886,-0.228,-0.2282,-0.2283,0,-0.1771,-0.1812,-0.1892,-0.2036,-0.207,-0.2119,-0.2302,-0.2357,-0.2445,-0.2488,-0.261,-0.2595,-0.2647,-0.2605,-0.2629,-0.2639,-0.2551,-0.2489,-0.2484,-0.2275,-0.215,-0.1917,-0.1889,-0.23,-0.2298,-0.2297,-0.2296,0,-0.1784,-0.1863,-0.195,-0.1986,-0.2116,-0.2213,-0.2301,-0.2414,-0.2476,-0.2592,-0.2624,-0.2753,-0.275,-0.2795,-0.261,-0.2646,-0.259,-0.2613,-0.2331,-0.2305,-0.2201,-0.2159,-0.2677,-0.2677,-0.2677,-0.2678,-0.2678,0,-0.1798,-0.1861,-0.1952,-0.1993,-0.2116,-0.224,-0.2381,-0.2465,-0.2586,-0.2616,-0.2714,-0.2736,-0.281,-0.2752,-0.2667,-0.2481,-0.2643,-0.2349,-0.2289,-0.2188,-0.215,-0.2553,-0.2541,-0.2672,-0.2673,-0.2674,-0.2675,0,-0.1785,-0.1835,-0.1929,-0.2071,-0.2109,-0.2207,-0.238,-0.2458,-0.258,-0.263,-0.2657,-0.2704,-0.26,-0.2589,-0.2521,-0.2457,-0.234,-0.2237,-0.2012,-0.193,-0.198,-0.1972,-0.1943,-0.1934,-0.1926,-0.192,-0.1914,0,-0.1779,-0.1813,-0.1939,-0.1981,-0.2035,-0.2182,-0.2262,-0.243,-0.249,-0.2554,-0.2546,-0.2473,-0.2329,-0.2145,-0.2035,-0.1866,-0.2046,-0.1674,-0.1733,-0.1981,-0.1926,-0.1929,-0.1931,-0.1553,-0.1546,-0.1539,-0.1534,0,-0.1758,-0.179,-0.185,-0.191,-0.1989,-0.2101,-0.2214,-0.2243,-0.2389,-0.2368,-0.2246,-0.2109,-0.1921,-0.1673,-0.1495,-0.1402,-0.1704,-0.1528,-0.1929,-0.1742,-0.1598,-0.1548,-0.1567,-0.1476,-0.1482,-0.1486,-0.1489,-0.1492,-0.1714,-0.1724,-0.1764,-0.181,-0.1908,-0.1955,-0.1963,-0.2019,-0.1993,-0.1861,-0.1859,-0.158,-0.1569,-0.1136,-0.1038,-0.1009,-0.1148,-0.1181,-0.121,-0.1244,-0.121,-0.106,-0.0821,-0.0822,-0.0824,-0.0825,-0.0827,0,-0.1641,-0.1623,-0.1657,-0.1694,-0.1726,-0.1824,-0.187,-0.1794,-0.162,-0.1462,-0.1257,-0.0991,-0.0777,-0.0789,-0.0639,-0.0598,-0.0677,-0.0595,-0.0775,-0.0829,-0.0878,-0.0837,-0.0343,-0.0342,-0.034,-0.0339,0,0,-0.1594,-0.1553,-0.1533,-0.1479,-0.1511,-0.147,-0.1443,-0.1279,-0.1135,-0.0823,-0.0633,-0.0537,-0.0632,-0.0441,-0.0443,-0.0374,-0.0571,-0.031,-0.0695,-0.0951,-0.0998,-0.1206,-0.1197,0,0,0,0,0]},{"header":{"parameterUnit":"m.s-1","parameterCategory":2,"la1":30.2991,"la2":30.254,"lo1":-89.0895,"lo2":-89.0444,"dy":0.0017,"dx":0.0017,"nx":28,"ny":28,"refTime":"2025-07-09T21:00:00:Z","depth":"2","parameterNumber":3,"parameterNumberName":"V-component_of_CURRENTS"},"data":[0,0,0,0,0,0,0,0,0,0,0,0,0,0,0,0,0,0,0,0,0,0,0,0,0,0,0,0,0,0,0,0,0,0,0,0,0,0,0,0,0,0,0,0,0,0,0,0,0,0,0,0,0,0,0,0,0,0,-0.0062,-0.0062,0,0.0002,0.0003,0.0004,0.0033,0.0032,0.0032,0.0032,0.0113,0.0115,0.0117,0,0,0,0,0,0,0,0,0,0,0,0,0,-0.0149,-0.0148,-0.0062,-0.0062,-0.0061,0.0002,0.0003,0.0004,0.0033,0.0032,0.0032,0.0032,0.0112,0.0115,0.0117,0,0,0,0,0,0,0,0,0,0,0,0,0,-0.0101,-0.0147,-0.0063,-0.0039,-0.0036,0.0002,0.0003,0.0004,0.0033,0.0032,0.0032,0.0032,0.0111,0.0114,0.0118,0.0139,0,0,0.0128,0.0129,0,0,0,0,0,0,0,0,-0.0104,-0.0098,-0.0043,-0.004,-0.0037,0.001,0.0002,0.005,0.0033,0.0006,0.0032,0.0032,0.008,0.0086,0.0097,0.0143,0.0146,0.0128,0.013,0.0131,0.0132,0,0,0,0,0,0,0,-0.0107,-0.01,-0.0037,-0.0042,-0.0038,-0.0027,-0.002,0.0011,0.0043,0.0009,0.0011,0.0019,0.0082,0.0094,0.0099,0.0147,0.0128,0.0131,0.0133,0.0134,0.0224,0.0224,0,0,0,0,0,0,-0.0115,-0.0104,-0.0039,-0.0035,-0.0071,-0.0025,-0.0018,-0.0006,0.0042,0.0049,0.0019,0.002,0.0089,0.0096,0.0102,0.0127,0.0131,0.0134,0.0136,0.0224,0.0224,0.0225,0,0,0,0,0,0,-0.0117,-0.0109,-0.0042,-0.0068,-0.0059,-0.0024,-0.001,-0.0004,0.0008,0.005,0.0057,0.0025,0.0089,0.0098,0.0129,0.013,0.0136,0.0139,0.0223,0.0224,0.0224,0.0178,0,0,0,0,0,0,-0.0119,-0.011,-0.0107,-0.0068,-0.0057,-0.0023,-0.001,-0.0003,0.0013,0.0015,0.0058,0.0065,0.0089,0.0124,0.0132,0.0135,0.0141,0.0223,0.0223,0.0224,0.0179,0.0177,0.0175,0,0,0,0,0,-0.0123,-0.0116,-0.0108,-0.01,-0.0053,-0.0023,-0.0017,0.0007,0.0014,0.0018,0.0047,0.0064,0.0135,0.0127,0.0136,0.014,0.0222,0.0223,0.0224,0.018,0.0177,0.0175,0,0,0,0,0,0,-0.016,-0.0111,-0.0101,-0.0083,-0.0058,-0.0018,-0.001,0.0006,0.0032,0.0034,0.0069,0.0079,0.0104,0.0133,0.0123,0.017,0.0182,0.0185,0.0145,0.0143,0.0141,0.0147,0.0144,0,0,0,0,0,-0.0166,-0.014,-0.0104,-0.009,-0.0079,-0.0047,-0.0033,-0.0016,0.0014,0.0026,0.0054,0.0087,0.0117,0.0137,0.0165,0.0194,0.0243,0.0204,0.0202,0.02,0.0213,0.0318,0.0327,0.0228,0.0228,0.0228,0,0,-0.0171,-0.0146,-0.0129,-0.0095,-0.0074,-0.006,-0.0038,-0.0017,-0.0009,0.0031,0.0049,0.0079,0.0122,0.0149,0.0164,0.0173,0.0244,0.0202,0.02,0.0214,0.032,0.033,0.0339,0.0228,0.0228,0.0228,0,0,-0.0169,-0.0154,-0.013,-0.0117,-0.0088,-0.007,-0.0066,-0.0031,-0.002,0.0003,0.0032,0.007,0.0108,0.0147,0.017,0.018,0.0227,0.0181,0.0182,0.0283,0.0293,0.0302,0.0329,0.0341,0.0185,0.0185,0.0185,0,-0.0189,-0.0158,-0.0123,-0.011,-0.0114,-0.0078,-0.0079,-0.0053,-0.0014,0.0004,0.0001,0.0096,0.0111,0.018,0.0164,0.0177,0.0221,0.0182,0.0282,0.0292,0.0302,0.0329,0.0343,0.0183,0.0183,0.0184,0.0184,0,-0.0155,-0.0157,-0.0149,-0.0122,-0.012,-0.0116,-0.009,-0.0076,-0.0064,-0.0024,0.0037,0.0084,0.0148,0.0149,0.0147,0.0227,0.0226,0.0262,0.0286,0.031,0.0335,0.035,0.018,0.0181,0.0182,0.0182,0,0,-0.0149,-0.0132,-0.0133,-0.0158,-0.0139,-0.0143,-0.0125,-0.0096,-0.0065,-0.0012,0.0056,0.0086,0.014,0.017,0.0203,0.0272,0.0334,0.0282,0.0288,0.0304,0.0513,0.0549,0.0569,0.0397,0.0401,0.0404,0.0484,0,-0.0149,-0.0161,-0.0138,-0.0172,-0.0198,-0.0179,-0.0167,-0.0132,-0.0085,-0.0002,0.0089,0.0162,0.0145,0.0183,0.0254,0.0327,0.0381,0.0306,0.0492,0.0497,0.0526,0.0592,0.0492,0.0562,0.0499,0.0502,0.0504,0,-0.0123,-0.0154,-0.0192,-0.0239,-0.0242,-0.0245,-0.0236,-0.0212,-0.0081,-0.003,0.009,0.0183,0.029,0.0289,0.044,0.0395,0.0439,0.0493,0.0499,0.057,0.0566,0.054,0.0592,0.053,0.0528,0.0526,0.0524,0,-0.017,-0.0197,-0.0248,-0.0264,-0.0286,-0.03,-0.0298,-0.022,-0.0175,-0.0019,0.0061,0.022,0.03,0.0426,0.0496,0.0485,0.067,0.0681,0.0755,0.0755,0.0727,0.0721,0.0803,0.0803,0.0802,0.0802,0.0802,0,-0.0198,-0.024,-0.0278,-0.0318,-0.0371,-0.0359,-0.0354,-0.0314,-0.0178,-0.0097,0.0052,0.0161,0.034,0.0467,0.0542,0.069,0.0708,0.0776,0.0808,0.0702,0.0692,0.072,0.0709,0.0805,0.0805,0.0804,0.0803,0,-0.0243,-0.0255,-0.0338,-0.0391,-0.0402,-0.0446,-0.041,-0.0368,-0.0256,-0.0128,-0.0067,0.0134,0.0283,0.0444,0.0629,0.0728,0.0876,0.0909,0.0735,0.0748,0.0875,0.0861,0.1046,0.1048,0.1051,0.1053,0.1054,0,-0.0262,-0.0312,-0.0413,-0.0459,-0.0488,-0.0523,-0.0513,-0.0421,-0.0339,-0.0157,-0.0067,0.0107,0.023,0.0521,0.0738,0.0932,0.0896,0.0945,0.0936,0.0903,0.0914,0.0896,0.088,0.0841,0.0841,0.0841,0.0841,0,-0.0339,-0.0378,-0.0456,-0.0547,-0.058,-0.0588,-0.0553,-0.0493,-0.0353,-0.0248,-0.0092,0.0012,0.0299,0.0501,0.0766,0.0867,0.0926,0.0952,0.1004,0.081,0.0723,0.0729,0.0717,0.0838,0.0839,0.0839,0.0839,0.0839,-0.0401,-0.0476,-0.0568,-0.0646,-0.067,-0.0636,-0.0621,-0.053,-0.0426,-0.025,-0.0152,0.0034,0.0247,0.0657,0.0773,0.0931,0.0992,0.0987,0.0982,0.0979,0.0956,0.0881,0.1016,0.1017,0.1018,0.1019,0.102,0,-0.0489,-0.0555,-0.0644,-0.072,-0.0739,-0.072,-0.0623,-0.0571,-0.0468,-0.0298,-0.0177,0.009,0.0308,0.0527,0.0784,0.0938,0.0892,0.0905,0.0783,0.0786,0.0789,0.0751,0.0759,0.0759,0.0758,0.0758,0,0,-0.0539,-0.065,-0.0692,-0.0762,-0.0788,-0.0764,-0.0707,-0.0613,-0.0464,-0.0314,-0.0125,0.0097,0.0381,0.0502,0.0614,0.0677,0.0688,0.0671,0.0866,0.0706,0.0706,0.0828,0.0774,0,0,0,0,0]}],[{"header":{"parameterUnit":"m.s-1","parameterCategory":2,"la1":30.2991,"la2":30.254,"lo1":-89.0895,"lo2":-89.0444,"dy":0.0017,"dx":0.0017,"nx":28,"ny":28,"refTime":"2025-07-09T21:00:00:Z","depth":"4","parameterNumber":2,"parameterNumberName":"U-component_of_CURRENTS"},"data":[0,0,0,0,0,0,0,0,0,0,0,0,0,0,0,0,0,0,0,0,0,0,0,0,0,0,0,0,0,0,0,0,0,0,0,0,0,0,0,0,0,0,0,0,0,0,0,0,0,0,0,0,0,0,0,0,0,0,-0.1409,-0.1409,0,-0.1452,-0.1452,-0.1453,-0.1485,-0.1485,-0.1485,-0.1486,-0.152,-0.152,-0.1521,0,0,0,0,0,0,0,0,0,0,0,0,0,-0.1362,-0.1363,-0.1409,-0.1409,-0.141,-0.1452,-0.1452,-0.1453,-0.1484,-0.1485,-0.1485,-0.1486,-0.152,-0.152,-0.1521,0,0,0,0,0,0,0,0,0,0,0,0,0,-0.1391,-0.1363,-0.1409,-0.1431,-0.1434,-0.1452,-0.1453,-0.1453,-0.1484,-0.1485,-0.1485,-0.1486,-0.1519,-0.152,-0.1521,-0.1516,0,0,-0.1524,-0.1524,0,0,0,0,0,0,0,0,-0.1389,-0.1392,-0.1427,-0.143,-0.1433,-0.1464,-0.1449,-0.1474,-0.1484,-0.1464,-0.1486,-0.1486,-0.1501,-0.1503,-0.1509,-0.1518,-0.1519,-0.1524,-0.1524,-0.1525,-0.1525,0,0,0,0,0,0,0,-0.1387,-0.1391,-0.1425,-0.1428,-0.1431,-0.1442,-0.1447,-0.1454,-0.1478,-0.1466,-0.1469,-0.1475,-0.1502,-0.1508,-0.151,-0.152,-0.1524,-0.1525,-0.1525,-0.1526,-0.1595,-0.1596,0,0,0,0,0,0,-0.1382,-0.1389,-0.1424,-0.1426,-0.1413,-0.1443,-0.1448,-0.1453,-0.1478,-0.1483,-0.1474,-0.1476,-0.1506,-0.1509,-0.1511,-0.1557,-0.1525,-0.1526,-0.1526,-0.1593,-0.1595,-0.1596,0,0,0,0,0,0,-0.1381,-0.1385,-0.1422,-0.1409,-0.1415,-0.1443,-0.1449,-0.1453,-0.1485,-0.1485,-0.1489,-0.1503,-0.1507,-0.151,-0.1544,-0.1557,-0.1526,-0.1527,-0.1592,-0.1594,-0.1596,-0.1617,0,0,0,0,0,0,-0.138,-0.1384,-0.1401,-0.1409,-0.1415,-0.1449,-0.1448,-0.1454,-0.1486,-0.149,-0.1511,-0.1513,-0.1507,-0.1543,-0.1545,-0.1558,-0.1528,-0.159,-0.1593,-0.1595,-0.1614,-0.1619,-0.1623,0,0,0,0,0,-0.1378,-0.1393,-0.1401,-0.1406,-0.1432,-0.145,-0.1455,-0.1476,-0.1487,-0.1506,-0.1524,-0.1514,-0.1559,-0.1545,-0.1547,-0.156,-0.1589,-0.1592,-0.1595,-0.1612,-0.1618,-0.1623,0,0,0,0,0,0,-0.1385,-0.1398,-0.1407,-0.1428,-0.1446,-0.1457,-0.1479,-0.1491,-0.152,-0.153,-0.153,-0.1534,-0.1564,-0.1567,-0.1551,-0.159,-0.1572,-0.1576,-0.1585,-0.159,-0.1595,-0.1564,-0.1528,0,0,0,0,0,-0.1392,-0.1408,-0.1421,-0.1442,-0.1452,-0.1471,-0.1487,-0.15,-0.1519,-0.1534,-0.1547,-0.1563,-0.1574,-0.1588,-0.1595,-0.1621,-0.1602,-0.1633,-0.1637,-0.1641,-0.162,-0.1611,-0.1611,-0.1606,-0.1606,-0.1606,0,0,-0.1403,-0.1412,-0.1423,-0.1445,-0.1461,-0.1473,-0.1483,-0.1512,-0.1525,-0.1531,-0.1564,-0.1578,-0.1584,-0.1608,-0.1622,-0.1616,-0.1638,-0.1645,-0.1648,-0.1623,-0.1614,-0.1614,-0.1614,-0.1608,-0.1608,-0.1607,0,0,-0.1414,-0.1438,-0.145,-0.1464,-0.149,-0.1498,-0.1512,-0.1535,-0.1554,-0.1585,-0.1589,-0.1612,-0.164,-0.1639,-0.1643,-0.1679,-0.1658,-0.1695,-0.1694,-0.1687,-0.1687,-0.1686,-0.1676,-0.1674,-0.1701,-0.1701,-0.1701,0,-0.1428,-0.1439,-0.1459,-0.1468,-0.1482,-0.1509,-0.1521,-0.154,-0.1574,-0.1586,-0.1602,-0.1633,-0.1646,-0.1654,-0.1669,-0.1684,-0.1678,-0.1672,-0.169,-0.1689,-0.1687,-0.1677,-0.1675,-0.1703,-0.1702,-0.1702,-0.1702,0,-0.1435,-0.1453,-0.1464,-0.148,-0.1498,-0.1519,-0.1538,-0.1565,-0.1593,-0.1606,-0.1636,-0.1653,-0.1667,-0.1683,-0.1686,-0.169,-0.1687,-0.1691,-0.1669,-0.1689,-0.1678,-0.1675,-0.1705,-0.1704,-0.1704,-0.1703,0,0,-0.1438,-0.1464,-0.1469,-0.1479,-0.1508,-0.1521,-0.1545,-0.1569,-0.1585,-0.162,-0.1633,-0.1659,-0.1671,-0.1674,-0.1687,-0.1683,-0.1681,-0.1686,-0.1685,-0.1662,-0.1663,-0.1541,-0.1526,-0.1691,-0.169,-0.1689,-0.1664,0,-0.144,-0.1456,-0.1469,-0.1491,-0.1501,-0.1528,-0.1544,-0.157,-0.16,-0.1621,-0.1638,-0.1658,-0.1668,-0.1683,-0.168,-0.1682,-0.1671,-0.1686,-0.1659,-0.1657,-0.1534,-0.1517,-0.1687,-0.1661,-0.1661,-0.166,-0.166,0,-0.1437,-0.1449,-0.1467,-0.1492,-0.15,-0.1517,-0.155,-0.1567,-0.1595,-0.1618,-0.1636,-0.1652,-0.1658,-0.1664,-0.1655,-0.1668,-0.1659,-0.1654,-0.1653,-0.1518,-0.1527,-0.1636,-0.1654,-0.1654,-0.1654,-0.1655,-0.1655,0,-0.142,-0.1447,-0.1464,-0.1473,-0.1503,-0.152,-0.1538,-0.1569,-0.1567,-0.1615,-0.1615,-0.1642,-0.1646,-0.1642,-0.164,-0.1653,-0.1616,-0.1637,-0.1511,-0.1504,-0.1614,-0.1615,-0.1605,-0.1605,-0.1605,-0.1605,-0.1605,0,-0.1402,-0.142,-0.1461,-0.1469,-0.1479,-0.1514,-0.1521,-0.1549,-0.1561,-0.1535,-0.1608,-0.158,-0.1639,-0.1628,-0.1629,-0.1547,-0.1609,-0.1483,-0.1475,-0.1629,-0.1631,-0.1613,-0.1614,-0.1604,-0.1605,-0.1605,-0.1605,0,-0.1369,-0.1402,-0.1419,-0.146,-0.1468,-0.1477,-0.1478,-0.1465,-0.1511,-0.1477,-0.1485,-0.1529,-0.152,-0.1556,-0.1555,-0.1509,-0.1467,-0.1424,-0.1579,-0.1586,-0.1366,-0.1369,-0.1272,-0.1267,-0.1263,-0.126,-0.1257,0,-0.1346,-0.1353,-0.1397,-0.1389,-0.1405,-0.1415,-0.1393,-0.1429,-0.1401,-0.1413,-0.1373,-0.1394,-0.1412,-0.1311,-0.138,-0.1365,-0.1351,-0.1326,-0.1336,-0.1322,-0.1326,-0.1336,-0.1344,-0.125,-0.1249,-0.1248,-0.1247,0,-0.1288,-0.1318,-0.1327,-0.1313,-0.1302,-0.1267,-0.1251,-0.1216,-0.1232,-0.129,-0.121,-0.1197,-0.1183,-0.1207,-0.1209,-0.12,-0.1343,-0.1283,-0.1292,-0.1301,-0.1295,-0.1305,-0.1318,-0.1233,-0.1235,-0.1236,-0.1237,0,-0.1239,-0.1227,-0.1235,-0.1204,-0.1183,-0.1102,-0.1116,-0.1057,-0.1032,-0.1061,-0.103,-0.1072,-0.114,-0.1116,-0.1112,-0.1101,-0.1087,-0.1053,-0.1074,-0.109,-0.1046,-0.1012,-0.0827,0,0,0,0,0,-0.1178,-0.1138,-0.1108,-0.1055,-0.1027,-0.1006,-0.0994,-0.1011,-0.1042,-0.0938,-0.0974,-0.0953,-0.0935,-0.0975,-0.0928,-0.105,-0.111,-0.0991,-0.1086,-0.1153,-0.117,-0.1137,0,0,0,0,0,0,-0.1129,-0.1111,-0.1074,-0.0923,-0.086,-0.0797,-0.0787,-0.0816,-0.0769,-0.0828,-0.0833,-0.0879,-0.09,-0.0945,-0.0905,-0.0916,-0.0948,-0.1031,-0.1027,-0.1144,-0.1159,-0.1172,-0.1144,0,0,0,0,0]},{"header":{"parameterUnit":"m.s-1","parameterCategory":2,"la1":30.2991,"la2":30.254,"lo1":-89.0895,"lo2":-89.0444,"dy":0.0017,"dx":0.0017,"nx":28,"ny":28,"refTime":"2025-07-09T21:00:00:Z","depth":"4","parameterNumber":3,"parameterNumberName":"V-component_of_CURRENTS"},"data":[0,0,0,0,0,0,0,0,0,0,0,0,0,0,0,0,0,0,0,0,0,0,0,0,0,0,0,0,0,0,0,0,0,0,0,0,0,0,0,0,0,0,0,0,0,0,0,0,0,0,0,0,0,0,0,0,0,0,-0.0027,-0.0027,0,0.002,0.0021,0.0021,0.004,0.004,0.004,0.004,0.0087,0.0088,0.0089,0,0,0,0,0,0,0,0,0,0,0,0,0,-0.009,-0.0089,-0.0027,-0.0027,-0.0026,0.002,0.0021,0.0021,0.004,0.004,0.004,0.004,0.0086,0.0088,0.0089,0,0,0,0,0,0,0,0,0,0,0,0,0,-0.0055,-0.0089,-0.0028,-0.0011,-0.0009,0.002,0.0021,0.0021,0.004,0.004,0.004,0.004,0.0086,0.0088,0.009,0.0105,0,0,0.0096,0.0097,0,0,0,0,0,0,0,0,-0.0057,-0.0052,-0.0014,-0.0012,-0.001,0.0024,0.0016,0.0049,0.004,0.0021,0.004,0.004,0.0066,0.0069,0.0079,0.0107,0.0109,0.0096,0.0097,0.0098,0.0099,0,0,0,0,0,0,0,-0.0059,-0.0054,-0.0009,-0.0014,-0.0011,-0.0002,0.0003,0.0022,0.0044,0.0023,0.0025,0.003,0.0067,0.0077,0.008,0.011,0.0096,0.0098,0.0099,0.01,0.0177,0.0178,0,0,0,0,0,0,-0.0065,-0.0057,-0.001,-0.0007,-0.0034,-0.0001,0.0004,0.0013,0.0044,0.0048,0.003,0.0031,0.0073,0.0077,0.0082,0.0123,0.0098,0.01,0.0101,0.0176,0.0177,0.0178,0,0,0,0,0,0,-0.0067,-0.0061,-0.0012,-0.0031,-0.0024,0.0,0.001,0.0014,0.0024,0.0049,0.0054,0.0035,0.0073,0.0079,0.0103,0.0124,0.0101,0.0103,0.0175,0.0176,0.0177,0.0192,0,0,0,0,0,0,-0.0068,-0.0062,-0.006,-0.0031,-0.0023,0.0009,0.0011,0.0015,0.0028,0.0029,0.0055,0.0059,0.0074,0.01,0.0105,0.0126,0.0104,0.0174,0.0176,0.0177,0.019,0.0193,0.0196,0,0,0,0,0,-0.0071,-0.0061,-0.0061,-0.0055,-0.0021,0.0009,0.0015,0.0031,0.0028,0.0038,0.0054,0.0059,0.0114,0.0103,0.0108,0.013,0.0173,0.0175,0.0177,0.0189,0.0193,0.0196,0,0,0,0,0,0,-0.0092,-0.0058,-0.0056,-0.0039,-0.0018,0.0013,0.0022,0.003,0.005,0.0049,0.0067,0.0073,0.0101,0.0113,0.01,0.0157,0.0146,0.0149,0.0153,0.0156,0.0159,0.0139,0.0106,0,0,0,0,0,-0.0096,-0.0076,-0.005,-0.0037,-0.0027,-0.0006,0.0006,0.0018,0.004,0.0049,0.0066,0.0089,0.0114,0.0132,0.0151,0.0183,0.0195,0.0202,0.0205,0.0207,0.0196,0.0234,0.0239,0.0184,0.0184,0.0184,0,0,-0.0098,-0.008,-0.0068,-0.0039,-0.0023,-0.0002,0.0002,0.0023,0.004,0.0051,0.0077,0.0094,0.0122,0.0157,0.0172,0.0172,0.0233,0.021,0.0211,0.0198,0.0237,0.0242,0.0247,0.0185,0.0185,0.0185,0,0,-0.0082,-0.008,-0.0053,-0.0039,-0.0014,-0.0001,0.0004,0.0032,0.0044,0.0073,0.0084,0.0113,0.015,0.018,0.0199,0.023,0.0241,0.0237,0.0245,0.0283,0.0287,0.0292,0.0328,0.0336,0.0247,0.0247,0.0247,0,-0.0094,-0.0067,-0.0042,-0.0019,-0.0025,-0.0001,0.0006,0.0037,0.007,0.0065,0.0082,0.0128,0.0164,0.02,0.0222,0.0237,0.0253,0.023,0.0286,0.029,0.0294,0.0331,0.0339,0.0247,0.0247,0.0247,0.0247,0,-0.0044,-0.0047,-0.0035,-0.0004,0.0004,0.0008,0.0039,0.0048,0.0057,0.0078,0.0103,0.0156,0.0175,0.0209,0.0232,0.0276,0.0277,0.0279,0.0275,0.0301,0.0338,0.0346,0.0249,0.0248,0.0248,0.0248,0,0,-0.0034,-0.001,-0.0012,-0.004,-0.0008,-0.0013,0.0018,0.0025,0.0013,0.0076,0.0069,0.0155,0.0165,0.0187,0.0225,0.028,0.0348,0.0294,0.0296,0.0326,0.0429,0.039,0.0395,0.0356,0.0357,0.0358,0.0449,0,-0.0025,-0.0022,0.0005,-0.0022,-0.0044,-0.0036,-0.0025,-0.0011,0.0007,0.0017,0.0085,0.0105,0.0166,0.0171,0.024,0.0312,0.0366,0.0323,0.0402,0.0405,0.0363,0.0401,0.0361,0.0455,0.0456,0.0458,0.0459,0,0.0007,-0.0018,-0.0042,-0.0106,-0.0112,-0.0107,-0.0154,-0.0134,-0.0094,-0.008,-0.0034,0.0012,0.0108,0.0148,0.0301,0.0267,0.0344,0.041,0.0415,0.0372,0.0379,0.0421,0.0473,0.0472,0.0471,0.047,0.0469,0,-0.0048,-0.0066,-0.0114,-0.0126,-0.0155,-0.0179,-0.0189,-0.0173,-0.0184,-0.0139,-0.0143,-0.0035,0.002,0.0138,0.0301,0.0294,0.0463,0.0466,0.0502,0.0501,0.0501,0.0496,0.0556,0.0556,0.0556,0.0555,0.0555,0,-0.008,-0.0125,-0.015,-0.0186,-0.0261,-0.025,-0.0304,-0.0298,-0.0282,-0.0296,-0.0197,-0.0174,0.002,0.0141,0.0279,0.0424,0.045,0.0504,0.0521,0.0508,0.0502,0.0508,0.0501,0.0559,0.0558,0.0557,0.0557,0,-0.0134,-0.014,-0.0217,-0.0271,-0.0289,-0.0343,-0.038,-0.0411,-0.0386,-0.0397,-0.0384,-0.0259,-0.0093,0.0097,0.0306,0.0384,0.053,0.0569,0.055,0.0564,0.0545,0.0538,0.0604,0.0603,0.0603,0.0602,0.0602,0,-0.0159,-0.0201,-0.0287,-0.0334,-0.0359,-0.0423,-0.046,-0.0461,-0.0478,-0.0449,-0.0449,-0.0307,-0.0203,0.0078,0.0273,0.0519,0.0543,0.0594,0.0565,0.054,0.055,0.0544,0.0538,0.0601,0.0601,0.0601,0.06,0,-0.0234,-0.0259,-0.0325,-0.0413,-0.047,-0.0536,-0.0578,-0.0601,-0.0592,-0.0578,-0.05,-0.0365,-0.018,0.0061,0.0258,0.043,0.0549,0.0589,0.0591,0.0564,0.0537,0.0547,0.0541,0.0598,0.0599,0.0599,0.0599,0,-0.0289,-0.0349,-0.042,-0.0496,-0.0565,-0.0617,-0.064,-0.064,-0.0649,-0.06,-0.0568,-0.0371,-0.0238,0.0014,0.0197,0.0366,0.0388,0.0401,0.0413,0.0417,0.0332,0.0269,0.0264,0,0,0,0,0,-0.0346,-0.0412,-0.0493,-0.0579,-0.0636,-0.0661,-0.0703,-0.0705,-0.0694,-0.0652,-0.061,-0.0436,-0.0179,-0.0047,0.0116,0.0175,0.0411,0.0363,0.0431,0.0588,0.059,0.0519,0,0,0,0,0,0,-0.039,-0.0475,-0.0511,-0.0612,-0.0662,-0.0724,-0.0742,-0.0735,-0.0692,-0.0655,-0.0488,-0.0436,-0.0143,-0.0254,0.0115,0.0163,0.0212,0.0497,0.0498,0.0587,0.0589,0.059,0.0518,0,0,0,0,0]}]]